Regional Weather Roundup
Issued by NWS

Home | Current Version | Previous Version | Graphics & Text | Print | Product List | Glossary On
Versions: 1 2 3 4 5 6 7 8 9 10 11 12 13 14 15 16 17 18 19 20 21 22 23 24 25 26 27 28 29 30 31 32 33 34 35 36 37 38 39 40 41 42 43 44 45 46 47 48 49 50
772
ASUS43 KMPX 051710
RWRMN
WEATHER ROUNDUP FOR MINNESOTA
NATIONAL WEATHER SERVICE TWIN CITIES/CHANHASSEN MN
1100 AM CST MON DEC 05 2016


NOTE: "FAIR" INDICATES FEW OR NO CLOUDS BELOW 12,000 FEET WITH NO
SIGNIFICANT WEATHER AND/OR OBSTRUCTIONS TO VISIBILITY. N/A MEANS
CURRENT SKY AND/OR WEATHER CONDITIONS ARE NOT AVAILABLE.

MNZ060>063-068>070-051800-
   Twin Cities Metro

CITY           SKY/WX    TMP DP  RH WIND       PRES   REMARKS
TWIN CITIES    CLOUDY    34  30  85 E16       29.72F WCI  24
ST PAUL        CLOUDY    34  32  92 SE13      29.76F WCI  25
CRYSTAL        PTSUNNY   35  29  78 SE13      29.71F WCI  26
BLAINE         CLOUDY    36  36 100 E8        29.73F
LAKEVILLE      CLOUDY    34  34 100 S5        29.75S WCI  30
EDEN PRAIRIE   CLOUDY    36  31  82 E10       29.69F
SOUTH ST PAUL  MOSUNNY   34  32  93 SE8       29.74F WCI  27
LAKE ELMO      PTSUNNY   32  32 100 E7        29.77F WCI  26
$$
MNZ001>005-007-008-013>017-022>024-027-028-051800-
   Northwest Minnesota

CITY           SKY/WX    TMP DP  RH WIND       PRES   REMARKS
BEMIDJI        CLOUDY    28  26  95 E10       29.71F WCI  18
HALLOCK        CLOUDY    28  27  93 E9        29.72R WCI  20
ROSEAU         CLOUDY    30  25  80 E8        29.73S WCI  23
WARROAD        CLOUDY    30  27  86 SE3       29.75R
THIEF RVR FALL CLOUDY    27  26  96 E14       29.70S WCI  16
CROOKSTON      CLOUDY    28  27  93 E12       29.69S FOG     WCI  18
FOSSTON        CLOUDY    27  25  93 E8        29.68F FOG     WCI  18
DETROIT LAKES  MOSUNNY   30  28  93 SE8       29.66F WCI  23
MOORHEAD       MOSUNNY   34  27  75 E7        29.64R WCI  28
PARK RAPIDS    CLOUDY    28  24  85 E8        29.69S FOG     WCI  20
$$
MNZ006-009>011-018-025>026-051800-
   North Central Minnesota

CITY           SKY/WX    TMP DP  RH WIND       PRES   REMARKS
BAUDETTE       CLOUDY    30  25  81 SE3       29.75R
FLAG ISLAND    CLOUDY    30  25  80 NW5       29.73F WCI  25
INTL FALLS     CLOUDY    30  26  85 CALM      29.76S
WASKISH        CLOUDY    30  27  86 E6        29.74S WCI  24
BIG FORK       CLOUDY    30  25  80 S3        29.76R
LONGVILLE      MOSUNNY   32  27  80 E7        29.72F WCI  26
GRAND RAPIDS   CLOUDY    30  26  85 E6        29.77S WCI  24
CRANE LAKE     CLOUDY    28  27  93 CALM      29.80S
ORR            CLOUDY    28  25  86 CALM      29.74F
COOK           CLOUDY    28  25  86 NW3       29.77S
$$
MNZ012-019>021-037-051800-
   Northeast Minnesota

CITY           SKY/WX    TMP DP  RH WIND       PRES   REMARKS
DULUTH         MOSUNNY   33  27  78 SE6       29.77S WCI  28
ELY            CLOUDY    28  25  86 W6        29.78R WCI  22
HIBBING        CLOUDY    29  24  82 N3        29.77R
EVELETH        CLOUDY    30  25  81 CALM      29.79R
DULUTH HARBOR  PTSUNNY   36  30  80 CALM      29.82R
TWO HARBORS    MOSUNNY   36  28  75 CALM      29.78R
SILVER BAY     CLOUDY    34  28  80 W5        29.78R WCI  30
GRAND MARAIS     N/A     34  30  85 NW3       29.81R
G MARAIS ARPRT CLOUDY    27  21  80 W3        29.76R
$$
MNZ029>031-032-039>041-046>048-054>057-064-051800-
   West Central Minnesota

CITY           SKY/WX    TMP DP  RH WIND       PRES   REMARKS
FERGUS FALLS   MOSUNNY   34  27  75 E12       29.64F WCI  25
WHEATON        MOSUNNY   34  32  93 E10       29.60F WCI  26
MORRIS         MOSUNNY   34  32  93 SE15G21   29.58F WCI  24
ALEXANDRIA     SUNNY     33  30  88 E12       29.62F WCI  24
ELBOW LAKE     FAIR      33  30  88 SE14      29.60F WCI  23
WADENA         SUNNY     27  27 100 E9        29.67F WCI  17
GLENWOOD       MOSUNNY   34  30  86 E14       29.62F WCI  24
APPLETON       MOSUNNY   36  32  87 SE13      29.57F
BENSON         MOSUNNY   36  30  80 SE13      29.60F
ORTONVILLE     CLOUDY    34  30  86 CALM      29.56F
MADISON        MOSUNNY   37  36  93 SE12      29.57F
WILLMAR        FAIR      36  34  93 SE12      29.64F
$$
MNZ033>034-036-042>043-049>051-058-059-051800-
   Central Minnesota

CITY           SKY/WX    TMP DP  RH WIND       PRES   REMARKS
ST CLOUD       SUNNY     35  32  88 E13       29.67F WCI  26
PAYNESVILLE    MOSUNNY   35  35 100 SE10      29.65F WCI  27
AITKIN         CLOUDY    30  27  86 E5        29.74R WCI  25
PINE RIVER     CLOUDY    27  27 100 E9        29.76S FOG     WCI  17
BRAINERD       CLOUDY    30  29  96 E6        29.72F FOG     WCI  24
STAPLES        SUNNY     28  28 100 E8        29.68F WCI  20
LONG PRAIRIE   FAIR      32  30  93 NE12      29.65F WCI  23
LITTLE FALLS   SUNNY     34  30  86 E9        29.69F WCI  26
LITCHFIELD     MOSUNNY   36  34  93 SE8       29.66F
BUFFALO        PTSUNNY   34  31  91 E10       29.69F WCI  26
MAPLE LAKE     MOSUNNY   34  33  96 E10       29.68F WCI  26
$$
MNZ037-044-045-052-053-051800-
   East Central Minnesota

CITY           SKY/WX    TMP DP  RH WIND       PRES   REMARKS
PRINCETON      MOSUNNY   34  34 100 E7        29.71F WCI  28
MORA           CLOUDY    32  30  93 E6        29.76F FOG     WCI  26
CAMBRIDGE      MOSUNNY   36  30  80 E7        29.70F
RUSH CITY      CLOUDY    34  30  86 E7        29.74F WCI  28
MOOSE LAKE     CLOUDY    30  28  93 S3        29.77S
HINCKLEY       FOG       30  30 100 E3        29.79S VSB 1
CLOQUET        CLOUDY    30  27  86 CALM      29.77R
MCGREGOR       CLOUDY    30  28  93 SE6       29.77R WCI  24
$$
MNZ071>073-080-081-089-090-097-098-051800-
   Southwest Minnesota

CITY           SKY/WX    TMP DP  RH WIND       PRES   REMARKS
MONTEVIDEO     MOSUNNY   34  34 100 S12       29.60F WCI  25
GRANITE FALLS  CLOUDY    37  33  87 E8        29.61F
CANBY          CLOUDY    36  33  90 CALM      29.57F
MARSHALL       CLOUDY    37  32  82 SE7       29.56F
REDWOOD FALLS  CLOUDY    37  31  78 SE15      29.62F
OLIVIA         MOSUNNY   36  32  87 SE13      29.62F
PIPESTONE      CLOUDY    36  32  87 S13       29.55R
WINDOM         CLOUDY    39  30  70 SE18G24   29.61F
WORTHINGTON    CLOUDY    37  31  78 S20       29.58F
JACKSON        CLOUDY    36  32  87 S13G22    29.64F
TRACY          CLOUDY    38  33  80 S8        29.56F
SLAYTON        PTSUNNY   35  31  85 S15G21    29.56F WCI  26
$$
MNZ065>067-074>077-082>085-091>093-051800-
   South Central Minnesota

CITY           SKY/WX    TMP DP  RH WIND       PRES   REMARKS
MANKATO        LGT RAIN  37  32  82 S17G24    29.70
NEW ULM        CLOUDY    37  32  81 S17G26    29.63F
ST JAMES       CLOUDY    37  32  81 SE17      29.67S
FAIRMONT       CLOUDY    37  32  82 S18       29.68F
GLENCOE        CLOUDY    37  35  92 SE8       29.67F
FARIBAULT      CLOUDY    36  32  87 SE13G20   29.74F
OWATONNA       MOSUNNY   36  30  80 SE17      29.75R
WASECA         CLOUDY    36  32  87 SE16      29.74F
ALBERT LEA     CLOUDY    37  36  93 SE14      29.76F
$$
MNZ078>079-086>088-094>096-051800-
   Southeast Minnesota

CITY           SKY/WX    TMP DP  RH WIND       PRES   REMARKS
ROCHESTER      PTSUNNY   32  31  96 S15       29.79S WCI  22
RED WING       CLOUDY    36  34  93 SE12G18   29.77F FOG
STANTON        CLOUDY    38  32  78 S8        29.74F
DODGE CENTER   CLOUDY    34  30  86 S18       29.78R WCI  23
WINONA         CLOUDY    36  32  87 SE9       29.85F
AUSTIN         CLOUDY    34  30  86 S7        29.79R FOG     WCI  28
PRESTON        CLOUDY    32  31  96 SE12      29.81F FOG     WCI  23
$$
ABBREVIATIONS USED IN REMARKS
   TC - TEMPERATURES IN CELSIUS
  WCI - WIND CHILL INDEX
   HX - HEAT INDEX
  VSB - VISIBILITY
$$




USA.gov is the U.S. government's official web portal to all federal, state and local government web resources and services.